[[{"header":{"parameterUnit":"m.s-1","parameterCategory":1,"la1":30.2991,"la2":30.254,"lo1":-89.0895,"lo2":-89.0444,"dy":0.0017,"dx":0.0017,"nx":28,"ny":28,"refTime":"2023-09-07T21:00:00:Z","depth":0,"parameterNumber":2,"parameterNumberName":"U-component_of_WINDS"},"data":[0,0,0,0,0,0,0,0,0,0,0,0,0,0,0,0,0,0,0,0,0,0,0,0,0,0,0,0,0,0,0,0,0,0,0,0,0,0,0,0,0,0,0,0,0,0,0,0,0,0,0,0,0,0,0,0,0,0,0.7201,0.7201,0,0.7208,0.7208,0.7209,0.7193,0.7192,0.7191,0.7191,0.7202,0.7203,0.7203,0,0,0,0,0,0,0,0,0,0,0,0,0,0.7175,0.7176,0.7201,0.7201,0.7201,0.7208,0.7208,0.7209,0.7193,0.7192,0.7191,0.7191,0.7201,0.7202,0.7203,0,0,0,0,0,0,0,0,0,0,0,0,0,0.7185,0.7176,0.7201,0.7194,0.7193,0.7208,0.7208,0.7209,0.7193,0.7192,0.7191,0.719,0.7201,0.7202,0.7203,0.7227,0,0,0.7207,0.7208,0,0,0,0,0,0,0,0,0.7184,0.7186,0.7195,0.7194,0.7194,0.7199,0.7203,0.7215,0.7193,0.7193,0.7191,0.719,0.7202,0.7203,0.7206,0.7227,0.7228,0.7207,0.7208,0.7208,0.7209,0,0,0,0,0,0,0,0.7184,0.7185,0.7204,0.7195,0.7194,0.7191,0.7192,0.7205,0.7202,0.7193,0.7192,0.7193,0.7201,0.7205,0.7206,0.7228,0.7207,0.7208,0.7209,0.7209,0.7269,0.727,0,0,0,0,0,0,0.7183,0.7185,0.7203,0.7204,0.7187,0.7192,0.7193,0.7198,0.7201,0.7201,0.7193,0.7192,0.7203,0.7205,0.7206,0.7234,0.7208,0.7209,0.721,0.7268,0.7269,0.727,0,0,0,0,0,0,0.7183,0.7185,0.7203,0.7194,0.7196,0.7194,0.7199,0.7198,0.7202,0.7202,0.7201,0.7198,0.7203,0.7205,0.7222,0.7234,0.721,0.7211,0.7267,0.7269,0.727,0.7289,0,0,0,0,0,0,0.7182,0.7185,0.7193,0.7194,0.7197,0.7217,0.72,0.7199,0.7204,0.7202,0.7206,0.7206,0.7202,0.722,0.7223,0.7235,0.7212,0.7266,0.7268,0.7269,0.7287,0.7291,0.7294,0,0,0,0,0,0.7181,0.7199,0.7193,0.7196,0.7206,0.7218,0.7219,0.7214,0.7205,0.7213,0.7213,0.7205,0.7232,0.7222,0.7225,0.7238,0.7265,0.7267,0.7269,0.7285,0.729,0.7293,0,0,0,0,0,0,0.7199,0.7199,0.7193,0.7211,0.7215,0.7215,0.7226,0.7219,0.7226,0.7224,0.7219,0.722,0.7238,0.724,0.7228,0.7261,0.7247,0.725,0.7259,0.7263,0.7266,0.7265,0.7213,0,0,0,0,0,0.7205,0.7214,0.7213,0.7229,0.7231,0.7228,0.7233,0.7229,0.7233,0.7235,0.7236,0.7241,0.725,0.7257,0.7266,0.7288,0.7288,0.7298,0.7301,0.7304,0.7306,0.7319,0.7323,0.7277,0.7277,0.7277,0,0,0.7218,0.7218,0.7224,0.7233,0.7235,0.7245,0.723,0.7241,0.7248,0.7237,0.7252,0.7254,0.7259,0.7278,0.7287,0.7281,0.7319,0.7307,0.7309,0.731,0.7321,0.7325,0.7329,0.7278,0.7278,0.7278,0,0,0.7245,0.7247,0.726,0.7263,0.7266,0.7264,0.7268,0.727,0.727,0.7285,0.7277,0.7287,0.7303,0.7307,0.7312,0.7342,0.7336,0.7346,0.7363,0.7375,0.7378,0.7381,0.7392,0.7396,0.7348,0.7348,0.7348,0,0.7261,0.7274,0.7268,0.728,0.7284,0.7273,0.7288,0.7291,0.7298,0.7301,0.7294,0.7314,0.7317,0.7338,0.7345,0.7349,0.7354,0.7345,0.7378,0.7381,0.7384,0.7394,0.7399,0.7349,0.7349,0.7349,0.7349,0,0.7293,0.7303,0.7313,0.7319,0.7325,0.7338,0.7334,0.7341,0.7337,0.7336,0.7353,0.7356,0.7366,0.737,0.7367,0.7391,0.7387,0.7379,0.7365,0.739,0.7399,0.7403,0.7351,0.735,0.735,0.735,0,0,0.7331,0.7334,0.7338,0.734,0.7344,0.7352,0.7365,0.7374,0.738,0.7385,0.7396,0.7411,0.7404,0.7409,0.7406,0.7416,0.7441,0.7407,0.7407,0.7413,0.7468,0.7473,0.7478,0.7437,0.7437,0.7438,0.7467,0,0.7358,0.7379,0.7375,0.7396,0.7405,0.7396,0.7407,0.7412,0.7412,0.742,0.7421,0.7431,0.7421,0.7424,0.7434,0.7435,0.7451,0.7433,0.7447,0.7448,0.7446,0.7483,0.7489,0.7516,0.7471,0.7472,0.7472,0,0.7392,0.7398,0.742,0.7423,0.7426,0.7437,0.7444,0.7453,0.7458,0.7457,0.7463,0.7458,0.7473,0.7459,0.7479,0.7467,0.7473,0.7475,0.7476,0.7476,0.7461,0.7484,0.7525,0.7529,0.7478,0.7478,0.7477,0,0.7418,0.7431,0.7446,0.7449,0.7452,0.746,0.7462,0.7466,0.7472,0.7479,0.7483,0.7492,0.7498,0.7505,0.7504,0.7494,0.7524,0.7511,0.7525,0.7525,0.7531,0.753,0.7573,0.7536,0.7536,0.7535,0.7535,0,0.7448,0.7462,0.7458,0.7467,0.7482,0.7478,0.7494,0.7495,0.7499,0.7509,0.7502,0.7512,0.7509,0.7519,0.7519,0.7535,0.7538,0.7538,0.7538,0.7539,0.7539,0.7542,0.754,0.7537,0.7536,0.7536,0.7536,0,0.7479,0.7476,0.7492,0.7494,0.7495,0.7506,0.7509,0.7518,0.7518,0.7531,0.7533,0.7534,0.7545,0.7545,0.7558,0.7557,0.7578,0.7576,0.7576,0.7575,0.7589,0.7588,0.7634,0.764,0.76,0.76,0.7601,0,0.7498,0.7508,0.7511,0.7517,0.7519,0.7529,0.7534,0.7531,0.7537,0.7544,0.7553,0.7564,0.7572,0.7591,0.7593,0.7604,0.7602,0.7617,0.7603,0.7604,0.7602,0.7601,0.7602,0.762,0.762,0.7621,0.7621,0,0.7532,0.7531,0.7538,0.7546,0.7553,0.7559,0.7564,0.757,0.7567,0.7575,0.7586,0.7593,0.7606,0.7617,0.7627,0.7631,0.7626,0.7626,0.7629,0.763,0.7629,0.763,0.7583,0.7624,0.7624,0.7624,0.7624,0.7623,0.7557,0.7566,0.757,0.7579,0.7583,0.7588,0.7597,0.7598,0.7607,0.7617,0.7615,0.7628,0.7634,0.7647,0.7651,0.7662,0.7657,0.7662,0.7663,0.7665,0.7666,0.7628,0.7664,0.7664,0.7664,0.7664,0.7664,0,0.7591,0.7593,0.7602,0.7609,0.7617,0.7611,0.7617,0.7624,0.7635,0.764,0.7649,0.7662,0.7673,0.7677,0.7688,0.7696,0.7694,0.7699,0.7698,0.7699,0.767,0.7666,0.77,0.77,0.77,0.77,0.77,0.77,0.7609,0.7624,0.7623,0.764,0.7642,0.7654,0.7658,0.7663,0.7668,0.7683,0.7692,0.7693,0.7699,0.771,0.772,0.7721,0.7725,0.7731,0.7731,0.7704,0.7701,0.7697,0.7693,0.7732,0.7732,0.7758,0.7759,0.7759]},{"header":{"parameterUnit":"m.s-1","parameterCategory":1,"la1":30.2991,"la2":30.254,"lo1":-89.0895,"lo2":-89.0444,"dy":0.0017,"dx":0.0017,"nx":28,"ny":28,"refTime":"2023-09-07T21:00:00:Z","depth":0,"parameterNumber":3,"parameterNumberName":"V-component_of_WINDS"},"data":[0,0,0,0,0,0,0,0,0,0,0,0,0,0,0,0,0,0,0,0,0,0,0,0,0,0,0,0,0,0,0,0,0,0,0,0,0,0,0,0,0,0,0,0,0,0,0,0,0,0,0,0,0,0,0,0,0,0,-0.3786,-0.3786,0,-0.3807,-0.3808,-0.3808,-0.3808,-0.3808,-0.3807,-0.3807,-0.383,-0.3831,-0.3831,0,0,0,0,0,0,0,0,0,0,0,0,0,-0.3747,-0.3748,-0.3786,-0.3786,-0.3787,-0.3807,-0.3808,-0.3808,-0.3808,-0.3808,-0.3807,-0.3807,-0.3829,-0.383,-0.3832,0,0,0,0,0,0,0,0,0,0,0,0,0,-0.3766,-0.3748,-0.3786,-0.3789,-0.379,-0.3807,-0.3808,-0.3808,-0.3808,-0.3808,-0.3807,-0.3807,-0.3829,-0.383,-0.3832,-0.3848,0,0,-0.3836,-0.3836,0,0,0,0,0,0,0,0,-0.3765,-0.3767,-0.3788,-0.3789,-0.3789,-0.3805,-0.3802,-0.3821,-0.3808,-0.3801,-0.3807,-0.3807,-0.3822,-0.3824,-0.3829,-0.3849,-0.385,-0.3836,-0.3836,-0.3837,-0.3837,0,0,0,0,0,0,0,-0.3763,-0.3766,-0.3794,-0.3789,-0.3789,-0.379,-0.3792,-0.3806,-0.3813,-0.3802,-0.3802,-0.3804,-0.3822,-0.3827,-0.3829,-0.385,-0.3836,-0.3837,-0.3838,-0.3838,-0.3887,-0.3887,0,0,0,0,0,0,-0.3761,-0.3765,-0.3794,-0.3795,-0.3776,-0.3791,-0.3793,-0.38,-0.3813,-0.3815,-0.3805,-0.3804,-0.3825,-0.3828,-0.383,-0.3851,-0.3837,-0.3838,-0.3839,-0.3886,-0.3887,-0.3887,0,0,0,0,0,0,-0.3761,-0.3764,-0.3793,-0.378,-0.3784,-0.3792,-0.38,-0.3801,-0.3806,-0.3815,-0.3817,-0.3808,-0.3825,-0.3828,-0.3844,-0.3851,-0.3839,-0.384,-0.3885,-0.3886,-0.3887,-0.3891,0,0,0,0,0,0,-0.3759,-0.3764,-0.3769,-0.378,-0.3785,-0.3806,-0.38,-0.3801,-0.3808,-0.3808,-0.382,-0.3821,-0.3825,-0.3842,-0.3845,-0.3853,-0.3841,-0.3885,-0.3886,-0.3887,-0.3891,-0.3892,-0.3894,0,0,0,0,0,-0.3758,-0.377,-0.377,-0.3773,-0.3792,-0.3806,-0.3809,-0.3813,-0.3809,-0.3815,-0.3821,-0.3821,-0.385,-0.3843,-0.3847,-0.3855,-0.3884,-0.3885,-0.3887,-0.389,-0.3892,-0.3894,0,0,0,0,0,0,-0.3759,-0.3771,-0.3771,-0.3787,-0.3795,-0.3806,-0.3814,-0.3815,-0.3825,-0.3824,-0.3829,-0.3832,-0.3847,-0.3853,-0.3845,-0.3872,-0.3867,-0.3869,-0.3868,-0.387,-0.3872,-0.387,-0.3842,0,0,0,0,0,-0.3761,-0.3772,-0.3782,-0.3794,-0.3799,-0.3806,-0.3812,-0.3814,-0.3824,-0.3828,-0.3835,-0.3844,-0.3856,-0.3863,-0.3874,-0.3892,-0.3895,-0.3899,-0.3901,-0.3902,-0.3904,-0.3914,-0.3917,-0.3891,-0.3891,-0.3891,0,0,-0.3766,-0.3774,-0.378,-0.3795,-0.3802,-0.3813,-0.3809,-0.382,-0.3829,-0.3829,-0.3845,-0.3851,-0.3862,-0.3878,-0.3886,-0.3884,-0.3912,-0.3903,-0.3904,-0.3905,-0.3916,-0.3918,-0.392,-0.3892,-0.3892,-0.3891,0,0,-0.3779,-0.3786,-0.3798,-0.3805,-0.3816,-0.3821,-0.3824,-0.3835,-0.3839,-0.3854,-0.3855,-0.3866,-0.3885,-0.3893,-0.39,-0.3918,-0.3918,-0.3922,-0.3929,-0.394,-0.3942,-0.3944,-0.3951,-0.3953,-0.3923,-0.3923,-0.3923,0,-0.3784,-0.38,-0.3804,-0.3816,-0.3823,-0.3824,-0.3837,-0.3844,-0.3858,-0.3863,-0.386,-0.3885,-0.3892,-0.3912,-0.3916,-0.3921,-0.3925,-0.392,-0.3941,-0.3943,-0.3945,-0.3952,-0.3954,-0.3924,-0.3924,-0.3923,-0.3923,0,-0.3805,-0.3816,-0.3825,-0.3838,-0.3846,-0.3858,-0.3865,-0.3873,-0.3875,-0.388,-0.3897,-0.3906,-0.3919,-0.3924,-0.3926,-0.3944,-0.3942,-0.394,-0.3934,-0.3948,-0.3954,-0.3957,-0.3924,-0.3924,-0.3924,-0.3924,0,0,-0.3819,-0.3836,-0.3839,-0.3845,-0.3858,-0.3867,-0.388,-0.3893,-0.39,-0.391,-0.3921,-0.3938,-0.3937,-0.3944,-0.3948,-0.3957,-0.3972,-0.3954,-0.3954,-0.3957,-0.3993,-0.3994,-0.3997,-0.3972,-0.3972,-0.3973,-0.3992,0,-0.3835,-0.3857,-0.3861,-0.3881,-0.3892,-0.3894,-0.3905,-0.3915,-0.392,-0.3931,-0.3938,-0.395,-0.3947,-0.3951,-0.3961,-0.3968,-0.3979,-0.3966,-0.3983,-0.3984,-0.398,-0.4001,-0.4002,-0.402,-0.3995,-0.3995,-0.3995,0,-0.3855,-0.3866,-0.3886,-0.3899,-0.3903,-0.3913,-0.3926,-0.3936,-0.3948,-0.3951,-0.396,-0.3963,-0.3977,-0.3971,-0.3991,-0.3983,-0.399,-0.3995,-0.3996,-0.3997,-0.399,-0.4003,-0.4026,-0.4028,-0.3999,-0.3999,-0.3999,0,-0.3864,-0.3884,-0.3899,-0.3904,-0.3919,-0.3926,-0.3933,-0.3943,-0.3951,-0.3963,-0.3968,-0.3981,-0.3989,-0.3999,-0.4005,-0.4,-0.4026,-0.402,-0.4029,-0.4029,-0.4035,-0.4034,-0.4058,-0.4039,-0.4039,-0.4039,-0.4039,0,-0.3881,-0.3894,-0.3903,-0.3913,-0.3927,-0.3933,-0.3947,-0.3954,-0.3964,-0.3975,-0.3978,-0.3988,-0.3996,-0.4008,-0.4013,-0.403,-0.4033,-0.4037,-0.4038,-0.4036,-0.4036,-0.4041,-0.404,-0.4039,-0.4039,-0.4039,-0.4039,0,-0.3893,-0.39,-0.3917,-0.393,-0.3933,-0.3943,-0.3955,-0.3964,-0.397,-0.3985,-0.3988,-0.3998,-0.4012,-0.402,-0.4038,-0.4041,-0.406,-0.406,-0.4056,-0.4057,-0.4066,-0.4065,-0.4095,-0.4099,-0.4076,-0.4077,-0.4077,0,-0.3904,-0.3914,-0.3928,-0.3935,-0.3942,-0.3954,-0.3962,-0.3969,-0.3977,-0.3991,-0.4,-0.4014,-0.4026,-0.4049,-0.4058,-0.4072,-0.4073,-0.4082,-0.4075,-0.4074,-0.4074,-0.4073,-0.4075,-0.4084,-0.4084,-0.4084,-0.4084,0,-0.3922,-0.3925,-0.3936,-0.3949,-0.3959,-0.397,-0.398,-0.3987,-0.3995,-0.4005,-0.4019,-0.4029,-0.4047,-0.4062,-0.4077,-0.4084,-0.4086,-0.4086,-0.409,-0.4088,-0.4086,-0.4088,-0.406,-0.4086,-0.4086,-0.4085,-0.4085,-0.4085,-0.3934,-0.3943,-0.3954,-0.3968,-0.3976,-0.3986,-0.3996,-0.4004,-0.4016,-0.4031,-0.4035,-0.405,-0.4063,-0.4083,-0.4091,-0.4104,-0.4102,-0.4106,-0.4107,-0.4108,-0.4109,-0.4084,-0.4107,-0.4107,-0.4106,-0.4106,-0.4106,0,-0.3952,-0.396,-0.3972,-0.3987,-0.3997,-0.3998,-0.401,-0.4019,-0.4033,-0.4044,-0.4056,-0.4073,-0.4088,-0.4098,-0.4113,-0.4122,-0.4123,-0.4126,-0.4125,-0.4127,-0.411,-0.4106,-0.4124,-0.4124,-0.4124,-0.4124,-0.4124,-0.4124,-0.3963,-0.3979,-0.3984,-0.4004,-0.4012,-0.4027,-0.4034,-0.4044,-0.4053,-0.4072,-0.4084,-0.4091,-0.4102,-0.4119,-0.4132,-0.4135,-0.4141,-0.4143,-0.4146,-0.413,-0.4128,-0.4126,-0.4123,-0.4144,-0.4144,-0.4162,-0.4163,-0.4163]}]]